GEOSCAN 1 (RS92S1)

Last updated on Thu Sep 10 2026 00:03:13 GMT+0000 (Coordinated Universal Time)

1 64880U 25155E 26252.59654372 .00008937 00000+0 28849-3 0 9992 2 64880 97.4642 221.8400 0005639 225.4365 134.6417 15.32350952 93695
UTC large
Height (km)
Speed (km/s)
/
Latitude / Longitude
Inclination (degrees)
Orbital Period (minutes)
Azimuth
Elevation
Range (km)
Doppler Factor

Next 0 passes for location: London (51.5072 / 0.1276)

No passes found over London.
GEOSCAN 1 (RS92S1)